Regional Weather Roundup
Issued by NWS

Home | Current Version | Previous Version | Text Only | Print | Product List | Glossary On
Versions: 1 2 3 4 5 6 7 8 9 10 11 12 13 14 15 16 17 18 19 20 21 22 23 24 25 26 27 28 29 30 31 32 33 34 35 36 37 38 39 40 41 42 43 44 45 46 47 48 49 50
000
ASUS43 KDTX 220410
RWRMI
MICHIGAN HOURLY REGIONAL WEATHER ROUNDUP
NATIONAL WEATHER SERVICE DETROIT/PONTIAC MI
1100 PM EST FRI NOV 21 2014

NOTE: "FAIR" INDICATES FEW OR NO CLOUDS BELOW 12,000 FEET WITH NO
SIGNIFICANT WEATHER AND/OR OBSTRUCTION TO VISIBILITY.

MIZ047>049-052>055-059>063-066>070-074>076-081>083-220500-
SOUTHEAST LOWER MICHIGAN

CITY           SKY/WX    TMP DP  RH WIND       PRES   REMARKS
ADRIAN         PTCLDY    19  11  70 S8        30.35F WCI   9
ALMA           MOCLDY    21  13  72 S9        30.27F WCI  11
ANN ARBOR      PTCLDY    17  10  74 SW7       30.34F WCI   8
BAD AXE        MOCLDY    24  15  70 SW14G20   30.27F WCI  11
CARO           MOCLDY    23  14  68 S13       30.28F WCI  11
DETROIT CITY   CLEAR     26  13  57 SW14      30.36F WCI  14
DETROIT        PTCLDY    19  12  74 S7        30.37F WCI  10
FLINT          PTCLDY    23  11  60 S12       30.30F WCI  12
GROSSE ILE     PTCLDY    25  16  68 S14       30.36F WCI  13
HILLSDALE      PTCLDY    19  11  70 S8        30.30F WCI   9
HOWELL         CLEAR     19  11  71 S8        30.30F WCI   9

CITY           SKY/WX    TMP DP  RH WIND       PRES   REMARKS
JACKSON        PTCLDY    21  10  62 S9        30.30F WCI  11
LAMBERTVILLE   PTCLDY    23  12  63 S6        30.37F WCI  16
LANSING        PTCLDY    21  11  65 S12       30.29F WCI   9
LAPEER         FAIR      22  13  68 SW12G17   30.30F WCI  11
MASON          CLEAR     19  11  73 S3        30.29F
MONROE         PTCLDY    18  12  79 S5        30.36S WCI  11
MT. CLEMENS    PTCLDY    17  13  83 S6        30.33F WCI   9
PONTIAC        PTCLDY    20  11  68 S8        30.31F WCI  10
PORT HOPE        N/A     25  12  58 VRB5G18   30.25F WCI  19
PORT HURON     PTCLDY    21  16  79 SW7       30.34F WCI  13
TRI CITIES     MOCLDY    25  13  60 S16       30.27F WCI  12
TROY           CLEAR     23  12  63 S7        30.35F WCI  15
SAGINAW HB     MOCLDY    25  16  68 S16G22    30.28F WCI  12
$$
MIZ043>046-050>051-056>058-064>065-071>073-077>080-220500-
SOUTHWEST LOWER MICHIGAN

CITY           SKY/WX    TMP DP  RH WIND       PRES   REMARKS
BATTLE CREEK   CLEAR     23  11  60 S12       30.28F WCI  12
BENTON HARBOR  PTCLDY    26  12  55 S10       30.25F WCI  16
BIG RAPIDS     PTCLDY    26  14  60 S12G17    30.19F WCI  15
COLDWATER      PTCLDY    26  13  58 S8        30.30F WCI  17
FREMONT        FAIR      25  11  56 S12G18    30.21F WCI  14
HOLLAND        PTCLDY    26  13  57 S10       30.25F WCI  16
GRAND RAPIDS   PTCLDY    22  11  62 S12       30.26F WCI  10
IONIA          FAIR      20  12  71 S8        30.26F WCI  11
KALAMAZOO      PTCLDY    23  12  62 S12       30.28F WCI  12
LUDINGTON      MOCLDY    29  21  70 S9        30.16F WCI  21
MARSHALL       CLEAR     20  11  68 S8        30.29F WCI  10
MOUNT PLEASANT CLOUDY    25  14  63 S8        30.24F WCI  16
MUSKEGON       PTCLDY    27  14  58 SE10      30.23F WCI  17
SOUTH HAVEN    PTCLDY    28  15  58 S9        30.25F WCI  19
$$
MIZ016>042-220500-
NORTHERN LOWER MICHIGAN

CITY           SKY/WX    TMP DP  RH WIND       PRES   REMARKS
ALPENA         MOCLDY    25  15  66 SW12      30.13F WCI  14
BEAVER ISLAND  MOCLDY    36  29  75 SW18G37   30.02F WCI  26
BELLAIRE       PTCLDY    28  19  69 S10G17    30.13F WCI  19
CADILLAC       MOCLDY    24  16  71 S15       30.12F WCI  11
CHARLEVOIX     PTCLDY    28  21  75 S13       30.10F WCI  18
FRANKFORT      MOCLDY    29  22  74 S12       30.11F WCI  20
GAYLORD        CLOUDY    23  15  71 SW15G23   30.08F WCI  10
GRAYLING       PTCLDY    25  15  65 SW9       30.14F WCI  16
HARBOR SPRINGS MOCLDY    28  20  71 SW14G23   30.08F WCI  17
HOUGHTON LAKE  PTCLDY    24  13  62 SW12      30.17F WCI  13
MANISTEE       MOCLDY    28  18  64 S6        30.15F WCI  22
OSCODA         CLOUDY    26  15  64 SW20G25   30.20F WCI  12
PELLSTON       MOCLDY    28  19  69 VRB7G17   30.07F WCI  21
ROGERS CITY    CLOUDY    26  19  75 S13       30.10F WCI  15
TRAVERSE CITY  MOCLDY    29  18  63 SW9G21    30.10F WCI  20
$$
MIZ007>008-015-220500-
EASTERN UPPER MICHIGAN

CITY           SKY/WX    TMP DP  RH WIND       PRES   REMARKS
KINROSS        CLOUDY    28  25  86 S12       29.99F WCI  18
MACKINAC ISLAN MOCLDY    29  22  74 SW18G29   30.04F WCI  17
NEWBERRY       CLEAR     31  25  77 SW24G35   29.95F WCI  18
S. S. MARIE    CLOUDY    27  20  75 SE6       30.00F WCI  20
MUNISING         N/A     30  10  43 S20G35    29.90F WCI  17
$$
MIZ004>006-011>014-085-220500-
CENTRAL UPPER MICHIGAN

CITY           SKY/WX    TMP DP  RH WIND       PRES   REMARKS
MANISTIQUE     FAIR      32  19  58 SW17G30   29.99F WCI  21
ESCANABA       MOCLDY    28  10  47 SW17G24   29.99F WCI  16
MENOMINEE      MOCLDY    28  12  50 SW23G32   30.01F WCI  14
SAWYER-GWINN   CLOUDY    23  12  62 S22G29    29.88F WCI   8
$$
MIZ001>003-009>011-084-220500-
WESTERN UPPER MICHIGAN

CITY           SKY/WX    TMP DP  RH WIND       PRES   REMARKS
IRON MOUNTAIN  MOCLDY    24   9  52 S10       29.93F WCI  14
HOUGHTON       MOCLDY    29  14  53 SW9G18    29.76F WCI  20
COPPER HARBOR    N/A     28  14  55 W9G22     29.76F WCI  19
IRONWOOD       MOCLDY    28  18  64 SW17G24   29.77F WCI  16
$$

ABBREVIATIONS USED IN REMARKS
   TC - TEMPERATURE IN CELSIUS
  WCI - WIND CHILL INDEX
   HX - HEAT INDEX
  VSB - VISIBILITY



USA.gov is the U.S. government's official web portal to all federal, state and local government web resources and services.